Back to catalog

STARLINK-2521

AliveCommunicationsVLEO
NORAD 48648·PAYLOAD·🇺🇸 United States

Launched May 26, 2021 from Cape Canaveral Space Force Station

Loading…

Next Passes (next 24 hours)

TLE

FreshSource: CelesTrak SupGP

Epoch: Sep 14, 2026, 20:34 UTC

1 48648C 21044L   26257.85743056 -.00023058  00000+0 -74134-3 0  2579
2 48648  53.1576 313.6531 0001111  93.8190 334.8122 15.31720075    10

Track STARLINK-2521 in real time with AllMySat

Download on the App Store